QPF
0.00 0.00 0.00 0.00 0.00 0.00 0.00 0.00 0.00 0.00 0.00 0.00 0.00 0.00 0.00 0.00 0.00 0.01 0.01 0.01 0.02 0.03 0.03 0.03 0.02 0.03 0.03 0.03 0.04 0.06 0.08 0.13 0.16 0.19 0.20 0.25 0.33 0.38 0.35 0.34 0.36 0.34 0.31 0.26
0.00 0.00 0.00 0.00 0.00 0.00 0.00 0.00 0.00 0.00 0.00 0.00 0.00 0.00 0.00 0.00 0.01 0.01 0.01 0.01 0.02 0.03 0.03 0.02 0.02 0.02 0.03 0.02 0.03 0.04 0.07 0.15 0.21 0.19 0.15 0.14 0.20 0.24 0.24 0.24 0.27 0.31 0.29 0.24
0.00 0.00 0.00 0.00 0.00 0.00 0.00 0.00 0.00 0.00 0.00 0.00 0.00 0.01 0.00 0.00 0.00 0.01 0.01 0.01 0.02 0.02 0.02 0.02 0.02 0.02 0.02 0.02 0.02 0.04 0.06 0.07 0.10 0.11 0.11 0.10 0.11 0.11 0.12 0.15 0.18 0.19 0.19 0.18
0.00 0.00 0.00 0.00 0.00 0.00 0.00 0.00 0.00 0.00 0.00 0.00 0.00 0.01 0.01 0.00 0.00 0.01 0.01 0.01 0.01 0.01 0.01 0.01 0.01 0.01 0.01 0.01 0.01 0.01 0.02 0.03 0.03 0.05 0.05 0.04 0.04 0.04 0.07 0.11 0.13 0.12 0.13 0.15
0.00 0.00 0.00 0.00 0.00 0.00 0.00 0.00 0.00 0.00 0.00 0.00 0.00 0.01 0.01 0.00 0.00 0.00 0.01 0.00 0.01 0.01 0.01 0.00 0.00 0.00 0.00 0.00 0.00 0.00 0.00 0.01 0.01 0.01 0.01 0.02 0.03 0.03 0.04 0.06 0.09 0.10 0.11 0.12
0.00 0.00 0.00 0.00 0.00 0.00 0.00 0.00 0.00 0.00 0.00 0.00 0.00 0.01 0.02 0.01 0.01 0.00 0.01 0.00 0.01 0.01 0.00 0.00 0.00 0.00 0.00 0.00 0.00 0.00 0.01 0.01 0.01 0.00 0.00 0.00 0.01 0.02 0.03 0.03 0.05 0.06 0.08 0.10
0.00 0.01 0.00 0.00 0.00 0.00 0.01 0.00 0.00 0.00 0.00 0.01 0.00 0.01 0.03 0.01 0.00 0.01 0.01 0.01 0.01 0.00 0.00 0.00 0.00 0.00 0.00 0.00 0.00 0.00 0.01 0.01 0.00 0.00 0.00 0.00 0.00 0.01 0.01 0.02 0.03 0.04 0.04 0.05
0.00 0.00 0.00 0.00 0.00 0.00 0.01 0.00 0.00 0.01 0.00 0.01 0.00 0.03 0.02 0.01 0.01 0.01 0.01 0.01 0.00 0.00 0.00 0.00 0.00 0.00 0.00 0.00 0.00 0.00 0.00 0.00 0.00 0.00 0.00 0.00 0.00 0.00 0.00 0.00 0.01 0.01 0.02 0.03
0.00 0.00 0.00 0.00 0.00 0.00 0.00 0.00 0.00 0.00 0.00 0.01 0.01 0.02 0.02 0.01 0.01 0.01 0.01 0.01 0.00 0.00 0.00 0.00 0.00 0.00 0.00 0.00 0.00 0.00 0.00 0.00 0.00 0.00 0.00 0.01 0.00 0.00 0.00 0.00 0.00 0.00 0.00 0.01
0.00 0.00 0.00 0.00 0.00 0.00 0.00 0.00 0.00 0.01 0.02 0.02 0.02 0.05 0.07 0.03 0.02 0.01 0.00 0.00 0.00 0.00 0.00 0.00 0.00 0.00 0.00 0.00 0.00 0.00 0.00 0.00 0.00 0.00 0.00 0.00 0.00 0.00 0.00 0.00 0.00 0.00 0.00 0.00
0.00 0.00 0.00 0.00 0.00 0.00 0.00 0.00 0.00 0.00 0.01 0.02 0.02 0.03 0.02 0.01 0.01 0.01 0.00 0.00 0.00 0.00 0.00 0.00 0.00 0.00 0.00 0.00 0.00 0.00 0.00 0.00 0.00 0.00 0.00 0.00 0.00 0.00 0.00 0.00 0.00 0.00 0.00 0.00
0.00 0.00 0.00 0.00 0.00 0.00 0.00 0.00 0.00 0.01 0.01 0.01 0.01 0.01 0.00 0.00 0.00 0.00 0.00 0.00 0.00 0.00 0.00 0.00 0.00 0.00 0.00 0.00 0.00 0.00 0.00 0.00 0.00 0.00 0.00 0.00 0.00 0.00 0.01 0.01 0.01 0.00 0.00 0.00
0.00 0.00 0.00 0.00 0.00 0.00 0.00 0.00 0.00 0.00 0.00 0.00 0.00 0.00 0.00 0.00 0.00 0.00 0.00 0.00 0.00 0.00 0.00 0.00 0.00 0.00 0.00 0.00 0.00 0.00 0.00 0.00 0.00 0.00 0.00 0.00 0.00 0.00 0.00 0.00 0.01 0.01 0.00 0.00
0.00 0.00 0.00 0.00 0.00 0.00 0.00 0.00 0.00 0.00 0.00 0.00 0.00 0.00 0.00 0.00 0.00 0.00 0.00 0.00 0.00 0.00 0.00 0.00 0.00 0.00 0.00 0.00 0.00 0.00 0.00 0.00 0.00 0.00 0.00 0.00 0.00 0.00 0.00 0.00 0.01 0.01 0.01 0.01
0.00 0.00 0.00 0.00 0.00 0.00 0.00 0.00 0.00 0.00 0.00 0.00 0.00 0.00 0.00 0.00 0.00 0.00 0.00 0.00 0.00 0.00 0.00 0.00 0.00 0.00 0.00 0.00 0.00 0.00 0.00 0.00 0.00 0.00 0.00 0.00 0.00 0.00 0.00 0.00 0.01 0.01 0.01 0.01
0.00 0.00 0.00 0.00 0.00 0.00 0.00 0.00 0.00 0.00 0.00 0.00 0.00 0.00 0.00 0.00 0.00 0.00 0.00 0.00 0.00 0.00 0.00 0.00 0.00 0.00 0.00 0.00 0.00 0.00 0.00 0.00 0.00 0.00 0.01 0.01 0.01 0.01 0.01 0.01 0.01 0.02 0.02 0.02
0.00 0.00 0.00 0.00 0.00 0.00 0.00 0.00 0.00 0.00 0.00 0.00 0.00 0.00 0.00 0.00 0.00 0.00 0.00 0.00 0.00 0.00 0.00 0.00 0.00 0.00 0.00 0.00 0.00 0.00 0.00 0.00 0.01 0.01 0.01 0.01 0.02 0.02 0.02 0.02 0.03 0.03 0.03 0.04
0.00 0.00 0.00 0.00 0.00 0.00 0.00 0.00 0.00 0.00 0.00 0.00 0.00 0.00 0.00 0.00 0.00 0.00 0.00 0.00 0.00 0.00 0.00 0.00 0.00 0.00 0.00 0.00 0.00 0.00 0.00 0.01 0.01 0.01 0.02 0.02 0.02 0.03 0.03 0.03 0.04 0.05 0.05 0.05
0.00 0.00 0.00 0.00 0.00 0.00 0.00 0.00 0.00 0.00 0.00 0.00 0.00 0.00 0.00 0.00 0.00 0.00 0.00 0.00 0.00 0.00 0.00 0.00 0.00 0.00 0.00 0.00 0.00 0.00 0.00 0.01 0.01 0.02 0.02 0.03 0.03 0.04 0.04 0.05 0.05 0.07 0.08 0.07
0.00 0.00 0.00 0.00 0.00 0.00 0.00 0.00 0.00 0.00 0.00 0.00 0.00 0.00 0.00 0.00 0.00 0.00 0.00 0.00 0.00 0.00 0.00 0.00 0.00 0.00 0.00 0.00 0.00 0.01 0.01 0.01 0.02 0.02 0.03 0.03 0.05 0.06 0.05 0.06 0.07 0.07 0.08 0.08
0.00 0.00 0.00 0.00 0.00 0.00 0.00 0.00 0.00 0.00 0.00 0.00 0.00 0.00 0.00 0.00 0.00 0.00 0.00 0.00 0.00 0.00 0.00 0.00 0.00 0.00 0.00 0.00 0.00 0.01 0.01 0.02 0.03 0.03 0.04 0.05 0.06 0.07 0.07 0.07 0.08 0.08 0.08 0.10
0.00 0.00 0.00 0.00 0.00 0.00 0.00 0.00 0.00 0.00 0.00 0.00 0.00 0.00 0.00 0.00 0.00 0.00 0.00 0.00 0.00 0.00 0.00 0.00 0.00 0.00 0.00 0.00 0.01 0.01 0.02 0.02 0.03 0.04 0.05 0.05 0.06 0.06 0.07 0.09 0.09 0.09 0.10 0.11
0.00 0.00 0.00 0.00 0.00 0.00 0.00 0.00 0.00 0.00 0.00 0.00 0.00 0.00 0.00 0.00 0.00 0.00 0.00 0.00 0.00 0.00 0.00 0.00 0.00 0.00 0.00 0.00 0.01 0.02 0.02 0.03 0.04 0.04 0.05 0.06 0.05 0.06 0.08 0.09 0.09 0.10 0.11 0.10
0.00 0.00 0.00 0.00 0.00 0.00 0.00 0.00 0.00 0.00 0.00 0.00 0.00 0.00 0.00 0.00 0.00 0.00 0.00 0.00 0.00 0.00 0.00 0.00 0.00 0.00 0.00 0.00 0.01 0.02 0.02 0.03 0.04 0.04 0.05 0.06 0.06 0.06 0.07 0.07 0.09 0.10 0.11 0.11
0.00 0.00 0.00 0.00 0.00 0.00 0.00 0.00 0.00 0.00 0.00 0.00 0.00 0.00 0.00 0.00 0.00 0.00 0.00 0.00 0.00 0.00 0.00 0.00 0.00 0.00 0.00 0.00 0.01 0.01 0.02 0.03 0.04 0.04 0.05 0.06 0.06 0.07 0.08 0.08 0.08 0.08 0.09 0.09
0.00 0.00 0.00 0.00 0.00 0.00 0.00 0.00 0.00 0.00 0.00 0.00 0.00 0.00 0.00 0.00 0.00 0.00 0.00 0.00 0.00 0.00 0.00 0.00 0.00 0.00 0.00 0.01 0.01 0.01 0.02 0.03 0.04 0.06 0.06 0.06 0.06 0.08 0.09 0.09 0.08 0.05 0.04 0.04
MSLP
1009.96 1010.23 1010.34 1010.32 1010.23 1010.13 1010.11 1010.21 1010.46 1010.86 1011.35 1011.88 1012.39 1012.81 1013.13 1013.32 1013.40 1013.40 1013.37 1013.33 1013.30 1013.29 1013.31 1013.32 1013.33 1013.32 1013.27 1013.20 1013.10 1012.98 1012.85 1012.70 1012.55 1012.37 1012.16 1011.92 1011.63 1011.32 1010.98 1010.63 1010.28 1009.95 1009.65 1009.38
1010.13 1010.33 1010.39 1010.33 1010.22 1010.14 1010.15 1010.30 1010.61 1011.05 1011.57 1012.10 1012.58 1012.97 1013.24 1013.38 1013.43 1013.42 1013.39 1013.36 1013.37 1013.40 1013.45 1013.49 1013.50 1013.48 1013.42 1013.31 1013.18 1013.03 1012.88 1012.73 1012.57 1012.39 1012.18 1011.93 1011.63 1011.28 1010.91 1010.52 1010.14 1009.78 1009.46 1009.19
1010.22 1010.35 1010.35 1010.27 1010.16 1010.11 1010.18 1010.40 1010.76 1011.24 1011.77 1012.28 1012.72 1013.04 1013.23 1013.30 1013.29 1013.23 1013.18 1013.16 1013.18 1013.24 1013.32 1013.39 1013.43 1013.42 1013.35 1013.25 1013.11 1012.97 1012.82 1012.68 1012.54 1012.38 1012.19 1011.94 1011.65 1011.30 1010.91 1010.50 1010.11 1009.75 1009.43 1009.17
1010.24 1010.31 1010.26 1010.16 1010.08 1010.08 1010.21 1010.50 1010.93 1011.44 1011.98 1012.47 1012.85 1013.09 1013.19 1013.17 1013.07 1012.95 1012.86 1012.82 1012.84 1012.92 1013.02 1013.12 1013.18 1013.19 1013.15 1013.06 1012.94 1012.81 1012.69 1012.58 1012.47 1012.34 1012.18 1011.97 1011.69 1011.36 1010.98 1010.58 1010.20 1009.85 1009.56 1009.32
1010.27 1010.25 1010.17 1010.06 1010.01 1010.07 1010.28 1010.64 1011.13 1011.69 1012.23 1012.69 1013.02 1013.18 1013.18 1013.06 1012.87 1012.68 1012.53 1012.46 1012.47 1012.55 1012.67 1012.78 1012.86 1012.89 1012.86 1012.79 1012.70 1012.60 1012.50 1012.43 1012.35 1012.27 1012.14 1011.97 1011.73 1011.42 1011.07 1010.71 1010.36 1010.05 1009.79 1009.59
1010.33 1010.24 1010.12 1010.01 1009.99 1010.10 1010.38 1010.82 1011.37 1011.96 1012.51 1012.95 1013.23 1013.32 1013.24 1013.03 1012.76 1012.50 1012.29 1012.18 1012.16 1012.23 1012.34 1012.45 1012.54 1012.58 1012.56 1012.50 1012.42 1012.33 1012.26 1012.21 1012.17 1012.12 1012.03 1011.89 1011.69 1011.43 1011.12 1010.81 1010.50 1010.24 1010.03 1009.88
1010.46 1010.31 1010.15 1010.04 1010.04 1010.20 1010.54 1011.04 1011.63 1012.25 1012.81 1013.23 1013.47 1013.51 1013.36 1013.09 1012.76 1012.44 1012.18 1012.03 1011.98 1012.01 1012.10 1012.20 1012.27 1012.30 1012.27 1012.21 1012.12 1012.04 1011.97 1011.93 1011.89 1011.86 1011.80 1011.69 1011.52 1011.30 1011.04 1010.78 1010.53 1010.32 1010.17 1010.07
1010.67 1010.47 1010.28 1010.16 1010.18 1010.38 1010.76 1011.29 1011.91 1012.54 1013.09 1013.49 1013.70 1013.70 1013.52 1013.21 1012.84 1012.48 1012.19 1012.00 1011.92 1011.92 1011.97 1012.04 1012.08 1012.07 1012.02 1011.92 1011.81 1011.71 1011.62 1011.56 1011.52 1011.48 1011.43 1011.33 1011.19 1011.00 1010.78 1010.56 1010.36 1010.20 1010.11 1010.07
1010.93 1010.70 1010.49 1010.38 1010.41 1010.62 1011.01 1011.55 1012.17 1012.78 1013.32 1013.69 1013.88 1013.86 1013.66 1013.34 1012.96 1012.59 1012.28 1012.07 1011.95 1011.92 1011.93 1011.95 1011.94 1011.89 1011.79 1011.65 1011.50 1011.35 1011.23 1011.14 1011.07 1011.01 1010.93 1010.83 1010.69 1010.51 1010.32 1010.13 1009.96 1009.85 1009.80 1009.81
1011.19 1010.96 1010.77 1010.67 1010.72 1010.93 1011.31 1011.82 1012.41 1012.98 1013.47 1013.81 1013.97 1013.93 1013.73 1013.42 1013.05 1012.69 1012.39 1012.17 1012.03 1011.96 1011.93 1011.90 1011.84 1011.73 1011.58 1011.39 1011.19 1010.99 1010.83 1010.69 1010.57 1010.47 1010.36 1010.23 1010.07 1009.89 1009.70 1009.51 1009.37 1009.28 1009.25 1009.30
1011.42 1011.23 1011.08 1011.02 1011.08 1011.29 1011.65 1012.11 1012.63 1013.13 1013.55 1013.84 1013.96 1013.91 1013.71 1013.42 1013.08 1012.75 1012.46 1012.25 1012.10 1012.01 1011.94 1011.85 1011.74 1011.59 1011.39 1011.15 1010.90 1010.66 1010.44 1010.25 1010.09 1009.93 1009.78 1009.60 1009.41 1009.20 1008.99 1008.80 1008.64 1008.55 1008.54 1008.60
1011.58 1011.47 1011.39 1011.39 1011.48 1011.70 1012.01 1012.41 1012.85 1013.25 1013.58 1013.80 1013.86 1013.79 1013.60 1013.33 1013.03 1012.74 1012.48 1012.28 1012.14 1012.02 1011.92 1011.80 1011.65 1011.45 1011.21 1010.94 1010.66 1010.38 1010.12 1009.89 1009.67 1009.46 1009.25 1009.03 1008.79 1008.54 1008.29 1008.06 1007.89 1007.78 1007.74 1007.79
1011.67 1011.68 1011.70 1011.77 1011.91 1012.13 1012.41 1012.74 1013.07 1013.37 1013.59 1013.72 1013.72 1013.62 1013.43 1013.19 1012.93 1012.68 1012.46 1012.28 1012.14 1012.01 1011.89 1011.74 1011.56 1011.33 1011.06 1010.77 1010.47 1010.17 1009.88 1009.61 1009.35 1009.10 1008.83 1008.55 1008.25 1007.95 1007.65 1007.39 1007.17 1007.03 1006.96 1006.97
1011.73 1011.86 1012.00 1012.16 1012.35 1012.58 1012.82 1013.07 1013.30 1013.49 1013.60 1013.63 1013.57 1013.44 1013.25 1013.03 1012.80 1012.60 1012.42 1012.26 1012.13 1012.00 1011.86 1011.68 1011.47 1011.22 1010.94 1010.64 1010.32 1010.01 1009.71 1009.42 1009.12 1008.82 1008.51 1008.17 1007.82 1007.46 1007.11 1006.80 1006.54 1006.34 1006.23 1006.20
1011.78 1012.02 1012.27 1012.52 1012.76 1013.00 1013.21 1013.39 1013.52 1013.59 1013.60 1013.54 1013.43 1013.27 1013.08 1012.89 1012.70 1012.54 1012.39 1012.27 1012.14 1012.00 1011.84 1011.64 1011.40 1011.13 1010.84 1010.53 1010.21 1009.90 1009.59 1009.27 1008.95 1008.61 1008.25 1007.86 1007.45 1007.04 1006.64 1006.28 1005.97 1005.73 1005.57 1005.49
1011.84 1012.18 1012.52 1012.83 1013.11 1013.34 1013.52 1013.63 1013.68 1013.66 1013.58 1013.45 1013.29 1013.12 1012.95 1012.79 1012.65 1012.52 1012.41 1012.30 1012.18 1012.03 1011.84 1011.61 1011.35 1011.05 1010.74 1010.42 1010.09 1009.77 1009.45 1009.13 1008.78 1008.40 1008.00 1007.56 1007.10 1006.63 1006.19 1005.78 1005.43 1005.15 1004.95 1004.82
1011.92 1012.31 1012.69 1013.04 1013.33 1013.55 1013.69 1013.74 1013.72 1013.63 1013.49 1013.33 1013.15 1012.98 1012.84 1012.72 1012.63 1012.55 1012.47 1012.38 1012.25 1012.08 1011.86 1011.59 1011.29 1010.95 1010.61 1010.27 1009.93 1009.60 1009.27 1008.92 1008.55 1008.14 1007.69 1007.21 1006.70 1006.19 1005.70 1005.25 1004.86 1004.55 1004.32 1004.17
1012.00 1012.39 1012.77 1013.11 1013.38 1013.57 1013.67 1013.67 1013.60 1013.47 1013.31 1013.13 1012.97 1012.83 1012.73 1012.67 1012.63 1012.60 1012.55 1012.47 1012.33 1012.13 1011.86 1011.55 1011.19 1010.81 1010.43 1010.06 1009.70 1009.35 1009.00 1008.63 1008.23 1007.79 1007.30 1006.77 1006.22 1005.67 1005.14 1004.66 1004.24 1003.91 1003.66 1003.49
1012.04 1012.38 1012.71 1013.00 1013.22 1013.37 1013.42 1013.40 1013.30 1013.16 1013.00 1012.85 1012.73 1012.64 1012.61 1012.61 1012.62 1012.63 1012.60 1012.52 1012.36 1012.13 1011.81 1011.44 1011.03 1010.60 1010.18 1009.77 1009.38 1009.01 1008.64 1008.25 1007.82 1007.35 1006.83 1006.26 1005.67 1005.08 1004.52 1004.01 1003.57 1003.22 1002.97 1002.79
1012.00 1012.25 1012.49 1012.71 1012.86 1012.96 1012.98 1012.93 1012.84 1012.72 1012.59 1012.49 1012.43 1012.41 1012.44 1012.50 1012.57 1012.60 1012.59 1012.50 1012.31 1012.04 1011.68 1011.26 1010.79 1010.32 1009.86 1009.42 1009.00 1008.60 1008.21 1007.80 1007.35 1006.86 1006.31 1005.71 1005.09 1004.47 1003.87 1003.34 1002.89 1002.53 1002.27 1002.10
1011.86 1011.99 1012.13 1012.25 1012.34 1012.38 1012.38 1012.34 1012.27 1012.19 1012.12 1012.09 1012.10 1012.16 1012.25 1012.35 1012.45 1012.50 1012.48 1012.38 1012.16 1011.85 1011.45 1010.98 1010.48 1009.97 1009.48 1009.01 1008.58 1008.17 1007.76 1007.34 1006.88 1006.36 1005.79 1005.17 1004.53 1003.88 1003.26 1002.70 1002.23 1001.87 1001.60 1001.44
1011.59 1011.61 1011.64 1011.67 1011.70 1011.72 1011.71 1011.69 1011.67 1011.65 1011.66 1011.70 1011.78 1011.90 1012.03 1012.17 1012.27 1012.32 1012.29 1012.15 1011.91 1011.56 1011.13 1010.63 1010.11 1009.58 1009.08 1008.61 1008.17 1007.75 1007.33 1006.90 1006.43 1005.90 1005.31 1004.68 1004.02 1003.35 1002.71 1002.14 1001.66 1001.28 1001.02 1000.87
1011.19 1011.11 1011.05 1011.02 1011.01 1011.02 1011.04 1011.07 1011.11 1011.17 1011.26 1011.37 1011.51 1011.67 1011.83 1011.97 1012.06 1012.08 1012.01 1011.84 1011.57 1011.19 1010.74 1010.24 1009.71 1009.19 1008.69 1008.23 1007.79 1007.37 1006.95 1006.51 1006.02 1005.48 1004.88 1004.24 1003.56 1002.88 1002.24 1001.66 1001.17 1000.79 1000.53 1000.39
1010.69 1010.53 1010.41 1010.34 1010.33 1010.35 1010.42 1010.52 1010.64 1010.79 1010.96 1011.13 1011.32 1011.49 1011.65 1011.77 1011.82 1011.80 1011.69 1011.48 1011.18 1010.79 1010.34 1009.84 1009.34 1008.84 1008.35 1007.90 1007.46 1007.04 1006.61 1006.15 1005.64 1005.08 1004.46 1003.81 1003.12 1002.44 1001.80 1001.23 1000.75 1000.38 1000.12 999.99
1010.09 1009.87 1009.73 1009.65 1009.66 1009.74 1009.87 1010.06 1010.28 1010.51 1010.75 1010.98 1011.20 1011.37 1011.51 1011.58 1011.58 1011.50 1011.34 1011.10 1010.77 1010.39 1009.95 1009.48 1009.01 1008.54 1008.08 1007.63 1007.20 1006.76 1006.30 1005.80 1005.25 1004.66 1004.01 1003.34 1002.64 1001.97 1001.34 1000.79 1000.33 999.99 999.76 999.64
1009.39 1009.15 1009.01 1008.96 1009.01 1009.16 1009.38 1009.67 1009.98 1010.30 1010.61 1010.88 1011.11 1011.28 1011.37 1011.39 1011.34 1011.21 1011.00 1010.73 1010.40 1010.02 1009.61 1009.19 1008.75 1008.31 1007.88 1007.43 1006.98 1006.49 1005.98 1005.42 1004.81 1004.16 1003.47 1002.77 1002.07 1001.41 1000.82 1000.30 999.89 999.58 999.39 999.30
Thickness
5781 5775 5774 5779 5783 5781 5778 5776 5773 5771 5775 5771 5761 5754 5752 5755 5755 5753 5752 5752 5750 5749 5752 5753 5754 5753 5751 5748 5745 5741 5738 5736 5734 5731 5728 5725 5724 5724 5723 5720 5717 5715 5714 5715
5772 5771 5780 5784 5782 5778 5775 5771 5770 5766 5770 5766 5755 5748 5747 5747 5745 5745 5743 5742 5743 5743 5743 5743 5743 5742 5739 5736 5734 5731 5728 5726 5724 5722 5719 5718 5717 5718 5716 5714 5712 5711 5710 5710
5769 5778 5784 5779 5775 5772 5774 5773 5772 5765 5762 5764 5757 5745 5743 5742 5743 5740 5738 5737 5737 5736 5735 5734 5733 5731 5729 5727 5724 5722 5718 5717 5715 5713 5713 5711 5710 5709 5708 5707 5707 5706 5705 5704
5775 5782 5779 5776 5775 5774 5769 5779 5774 5765 5758 5760 5757 5747 5742 5741 5738 5734 5732 5731 5730 5729 5729 5727 5725 5722 5720 5718 5716 5713 5710 5708 5706 5705 5703 5700 5699 5698 5697 5697 5698 5698 5698 5697
5771 5776 5773 5770 5772 5774 5772 5776 5772 5767 5762 5759 5758 5752 5743 5743 5735 5732 5729 5726 5725 5723 5722 5719 5717 5715 5713 5711 5709 5706 5702 5699 5697 5695 5693 5692 5691 5690 5690 5688 5687 5687 5688 5688
5774 5781 5779 5775 5779 5777 5775 5771 5767 5767 5764 5745 5750 5745 5736 5741 5735 5731 5727 5723 5721 5719 5717 5714 5712 5710 5707 5705 5702 5699 5694 5690 5688 5686 5684 5681 5679 5678 5676 5676 5676 5677 5678 5678
5764 5772 5780 5781 5773 5775 5771 5759 5747 5741 5741 5740 5748 5743 5729 5735 5735 5730 5725 5721 5720 5717 5714 5710 5707 5704 5700 5697 5694 5690 5685 5681 5678 5676 5673 5671 5669 5667 5665 5665 5666 5665 5667 5667
5751 5752 5768 5773 5767 5763 5764 5760 5741 5728 5733 5741 5743 5735 5727 5731 5730 5727 5723 5720 5716 5713 5710 5706 5702 5699 5695 5692 5687 5682 5677 5672 5669 5666 5663 5660 5658 5658 5658 5655 5654 5654 5654 5654
5754 5752 5768 5769 5772 5768 5760 5760 5760 5748 5744 5735 5740 5731 5722 5725 5724 5721 5718 5714 5711 5708 5705 5702 5698 5694 5690 5685 5680 5674 5668 5663 5660 5656 5653 5650 5647 5645 5644 5642 5641 5642 5640 5640
5764 5750 5762 5767 5772 5766 5766 5760 5753 5743 5722 5720 5731 5725 5715 5715 5715 5717 5713 5710 5707 5704 5700 5696 5692 5687 5682 5677 5671 5666 5660 5655 5651 5647 5644 5642 5639 5635 5632 5630 5629 5628 5627 5626
5768 5752 5755 5759 5751 5748 5754 5752 5747 5744 5735 5719 5714 5717 5722 5714 5712 5710 5709 5706 5701 5697 5693 5689 5685 5680 5673 5668 5662 5657 5652 5646 5642 5637 5634 5629 5626 5623 5620 5618 5616 5614 5613 5612
5763 5759 5748 5749 5753 5756 5751 5743 5740 5727 5722 5723 5718 5715 5721 5715 5711 5707 5703 5700 5696 5691 5687 5682 5676 5670 5663 5657 5652 5646 5641 5636 5632 5628 5623 5619 5615 5611 5608 5606 5604 5602 5600 5599
5760 5749 5739 5738 5741 5748 5742 5739 5737 5733 5726 5718 5710 5712 5717 5714 5709 5704 5698 5693 5688 5683 5679 5673 5666 5658 5651 5646 5641 5636 5631 5626 5621 5617 5612 5608 5604 5599 5596 5593 5590 5588 5586 5585
5761 5749 5741 5731 5732 5739 5732 5730 5731 5727 5719 5712 5710 5708 5714 5709 5702 5697 5691 5686 5682 5676 5669 5663 5655 5648 5642 5635 5630 5625 5620 5615 5610 5605 5600 5595 5591 5587 5583 5581 5578 5575 5573 5572
5759 5746 5743 5742 5742 5739 5732 5727 5725 5719 5714 5707 5705 5704 5707 5702 5695 5689 5684 5680 5674 5668 5661 5653 5645 5638 5632 5626 5621 5615 5609 5603 5597 5592 5587 5583 5579 5575 5571 5567 5563 5561 5559 5559
5756 5744 5741 5735 5736 5733 5726 5724 5721 5716 5713 5708 5705 5704 5707 5700 5692 5685 5679 5672 5665 5658 5651 5644 5637 5630 5623 5616 5611 5605 5598 5592 5585 5580 5575 5570 5566 5561 5556 5552 5549 5547 5546 5545
5753 5741 5733 5733 5733 5726 5719 5723 5718 5714 5714 5706 5698 5700 5701 5692 5684 5677 5671 5664 5656 5648 5642 5634 5627 5621 5614 5608 5601 5595 5589 5582 5576 5569 5564 5559 5553 5548 5542 5538 5536 5534 5532 5532
5744 5738 5735 5733 5722 5703 5723 5731 5723 5713 5711 5710 5704 5700 5694 5687 5681 5675 5669 5658 5648 5640 5633 5627 5620 5614 5607 5601 5594 5587 5580 5573 5566 5560 5554 5548 5542 5536 5531 5526 5523 5520 5518 5518
5746 5736 5733 5728 5720 5721 5721 5722 5717 5706 5704 5709 5699 5694 5690 5685 5676 5676 5667 5652 5641 5633 5626 5619 5612 5606 5600 5593 5586 5579 5572 5564 5557 5551 5545 5538 5531 5525 5519 5515 5512 5509 5507 5507
5740 5737 5732 5724 5708 5705 5717 5722 5719 5706 5698 5705 5696 5687 5682 5675 5666 5667 5659 5647 5638 5629 5621 5614 5607 5600 5593 5586 5578 5570 5564 5557 5550 5544 5536 5529 5522 5516 5511 5507 5503 5501 5498 5498
5733 5728 5726 5721 5712 5721 5724 5721 5712 5692 5692 5697 5692 5684 5676 5667 5660 5657 5651 5642 5632 5624 5616 5609 5601 5593 5586 5579 5571 5563 5557 5551 5544 5537 5529 5522 5515 5508 5503 5499 5496 5493 5491 5491
5733 5730 5721 5718 5708 5712 5723 5716 5705 5700 5701 5694 5688 5681 5673 5665 5660 5653 5644 5635 5627 5619 5612 5604 5596 5589 5581 5573 5565 5558 5552 5546 5538 5530 5523 5517 5510 5503 5500 5494 5491 5488 5486 5486
5736 5736 5733 5725 5722 5724 5726 5719 5714 5707 5697 5692 5685 5678 5670 5662 5655 5647 5638 5630 5622 5614 5607 5599 5591 5584 5576 5568 5560 5554 5548 5540 5532 5525 5519 5513 5506 5501 5495 5491 5488 5485 5483 5484
5738 5732 5727 5721 5726 5725 5721 5718 5711 5703 5695 5689 5682 5674 5666 5657 5650 5642 5633 5625 5617 5610 5602 5595 5586 5578 5572 5564 5557 5549 5543 5535 5528 5522 5516 5510 5505 5500 5495 5490 5487 5484 5483 5483
5736 5727 5723 5717 5723 5721 5718 5714 5709 5701 5693 5685 5678 5670 5661 5652 5644 5636 5628 5621 5612 5605 5598 5589 5580 5574 5567 5561 5554 5547 5540 5533 5526 5520 5515 5510 5505 5500 5495 5492 5488 5485 5483 5480
5739 5730 5720 5719 5726 5719 5715 5712 5706 5696 5687 5680 5672 5664 5657 5649 5639 5631 5624 5616 5608 5601 5593 5585 5577 5570 5564 5558 5552 5546 5538 5531 5524 5520 5516 5511 5506 5502 5498 5494 5492 5486 5481 5478